Погода в Ейске

Погода в Ейске : погода сейчас, прогноз погоды и архив. Всё, что Вы хотите узнать о погоде в Ейске!

Хотите узнать прогноз погоды в Ейске? Тогда Вам сюда: Погода в Ейске

Поиск расширенной информации на нашем сайте:

Другие новости

Новости СМИ2

Главная страница сайта

Новости сайта

02.10.2013

Напоминаем, что на нашем новом сайте вы можете получить высокодетализированные прогнозы погоды по пунктам России, СНГ и мира (включающие важные для авиации метеовеличины, такие как направление и скорость ветра, видимость, явления погоды, количество и форма облачности, нижняя и верхняя граница облачности), а также ознакомиться с разнообразными материалами по авиационной метеорологии и подборкой полезных ссылок на эту тему.

Сайт Метеоцентр.Азия посвящён разработке технологий оптимизации авиаметеорологического обслуживания, включая проектирование и перспективное создание нескольких автоматизированных авиаметеорологических систем:
- система выпуска высокодетальных прогностических карт явлений погоды для нижнего воздушного пространства по России и ближнему зарубежью;
- система верификации прогнозов TAF (выпускаемых синоптиками официальных АМСГ РФ и ближнего зарубежья) и AUTOTAF (выпускаемых сайтом Метеоцентр.Азия) - выявление ошибок, онлайн-сопоставление с фактической погодой METAR, автоматическое внесение коррективов в прогнозы при резком отклонении фактической погоды от прогноза, подсчёт оправдываемости прогнозов по элементам и в целом;
- система обработки, анализа и отображения авиаметеорологической информации для применения провайдерами метеорологической информации.


Погода в Ейске - сегодня

Время (UTC), дата Ветер
(°,м/с) 
Видим.   Явления Облачность Т
(°С)
Тd
(°С)
f(%) Тe
(°С)
Pmin
(гПа)
dP
(гПа)
Po
(мм)
O2
(г/м3)
Тmin Tmax R s Состояние
почвы
03 25.06.17 120 (ЮВ) 10 км    4/0 верхняя 
[Ci fib]
+19.8 +16 79 +31  1012.3  1.3  757  281  +18.4    35    влажная 
06 25.06.17 230 (ЮЗ) 10 км    4/1 600 м верхняя 
[Cu med, cong|Ci fib]
+23.2 +15.9 64 +33  1013.6  1.3  758  278           
09 25.06.17 290 (З) 10 км    10/10 600 м кучево-дожд. 
[Cb calv]
+24.1 +16.4 62 +35  1014.4  0.8  759  277           
12 25.06.17 230 (ЮЗ) 10 км    10/5 600 м верхняя 
[Sc diur, vesp|Ci fib]
+26 +14.9 50 +34  1014.4  759  276           
15 25.06.17 230 (ЮЗ) 10 км    3/3 600 м 
[Cu hum]
+25 +17.5 63 +38  1014.2  -0.2  759  276    +26.5       
18 25.06.17 200 (Ю) 10 км    4/1 600 м верхняя 
[Cu hum|Ci fib]
+20.8 +18.1 85 +35  1015  0.8  759  280           
21 25.06.17 210 (ЮЗ) 10 км    ясно 
+19.1 +17.3 89 +33  1015.6  0.6  760  282           
00 26.06.17 200 (Ю) 10 км    ясно 
+17.4 +16.3 93 +29  1015.3  -0.3  759  284           
03 26.06.17 220 (ЮЗ) 4000 м  дымка  ясно 
+19.3 +18.5 95 +35  1015.4  0.2  759  281  +17.2        влажная 
06 26.06.17 010 (С) 4000 м  дымка  1/1 600 м 
[Cu med, cong]
+23.9 +22.3 91 +48  1015.9  0.5  760  276           
09 26.06.17 020 (С) 10 км    5/5 600 м 
[Cu med, cong]
+27.4 +17.2 54 +40  1015.6  -0.3  760  274           
12 26.06.17 360 (С) 10 км    8/5 1000 м средняя, верхняя 
[Cu med, cong|Ac lent|Ci fib]
+28.3 +14.8 44 +36  1014.9  -0.3  759  274           
15 26.06.17 340 (С) 10 км    1/1 1000 м 
[Cu hum]
+28 +14.8 45 +36  1013.9  -1  758  274    +28.6       
18 26.06.17 тихо ()   10 км    ясно 
+23.5 +16.9 66 +35  1013.3  -0.6  758  277           
21 26.06.17 060 (СВ) 10 км    ясно 
+24.4 +17.6 66 +38  1012.9  -0.4  758  276           
00 27.06.17 100 (В) 10 км    ясно 
+21.9 +17.6 77 +35  1012.7  -0.2  757  279           
03 27.06.17 130 (ЮВ) 10 км    ясно 
+22.3 +20.4 89 +42  1012.7  757  277  +21.1        сухая 
06 27.06.17 130 (ЮВ) 10 км    ясно 
+27.2 +16.4 52 +38  1012.3  -0.4  757  274           
09 27.06.17 030 (СВ) 10 км    3/1 600 м верхняя 
[Cu hum|Ci fib]
+27.2 +21.3 70 +49  1012.1  -0.2  757  272           
12 27.06.17 040 (СВ) 10 км    3/1 600 м верхняя 
[Cu hum|Ci fib]
+28 +20.4 63 +47  1011.3  -0.8  756  271           
15 27.06.17 040 (СВ) 10 км    4/1 600 м верхняя 
[Cu hum|Ci fib]
+28.4 +20.9 64 +49  1010.4  -0.9  756  271    +29.5       
18 27.06.17 060 (СВ) 10 км    6/0 верхняя 
[Ci fib]
+26 +20.9 74 +46  1010.9  0.5  756  273           
21 27.06.17 120 (ЮВ) 10 км    ясно 
+23.8 +20.1 80 +42  1010.8  0.1  756  275           
00 28.06.17 140 (ЮВ) 10 км    ясно 
+22.9 +13.6 56 +29  1010.6  -0.2  756  278           
03 28.06.17 060 (СВ) 10 км    8/0 верхняя 
[Ci fib]
+24.6 +19 71 +41  1011.1  0.5  756  275  +20.3        сухая 
Время (UTC), дата Ветер
(°,м/с) 
Видим.   Явления Облачность Т
(°С)
Тd
(°С)
f(%) Тe
(°С)
Pmin
(гПа)
dP
(гПа)
Po
(мм)
O2
(г/м3)
Тmin Tmax R s Состояние
почвы

Для получения пояснительной информации подведите курсор к названию столбца.

ПОГОДА в Ейске - архив

Всё, что Вы хотите узнать о погоде в Ейске - удобно и подробно!

Выберите нужную дату (начиная с 1 января 2015* года) и нажмите кнопку "Найти".
Будут отображены архивные сводки погоды по пункту Ейск, начиная с указанной даты.


Отображать данные в формате CSV (для использования в таблицах Excel)


Внимание! Наш архив погоды предназначен исключительно для личного некоммерческого использования в познавательных целях. Если Вам необходимы официальные справки о состоянии погоды (для производственных, юридических, коммерческих и т.п. целей), обращайтесь в органы Росгидромета.

*Примечание: данная дата относится к архиву по метеостанциям СССР (Россия, СНГ, Балтия).
Архив по метеостанциям Зарубежной Европы и Азии (кроме Китая) хранится 10 дней, по другим регионам земного шара (Китай, Африка, Америка, Австралия, Океания) - 1 день.

Ейск - район местоположения метеостанции


Название, широта, долгота, высота метеостанции:
Ейск 46.8°ш. 38.3°д. 3 м над ур. моря [Российская Федерация]

Дополнительная информация

В oтличие oт бoльшинства пoгoдных сайтoв мы публикуем пoдрoбную метеoинфoрмацию в детальнoм прoфессиoнальнoм фoрмате.

Характеристики температуры и влажнoсти вoздуха измеряются на высoте 2 м в тени вдали oт зданий и деревьев.
Скoрoсть ветра измеряется на высoте 10 м (на урoвне рoста челoвека скoрoсть ветра ниже в 1.5-2 раза). Если метеoстанция нахoдится в гoрoде или в лесу, тo скoрoсть ветра занижена на 2-4 м/с пo сравнению с oткрытым местoм. Скoрoсть ветра над акватoриями крупных рек и oзёр, а также на вершинах хoлмoв на 2-5 м/с выше, чем в oбычных услoвиях.
Атмoсфернoе давление в разных тoчках местнoсти мoжет значительнo oтличаться oт давления на метеoстанции, в зависимoсти oт услoвий рельефа (при пoдъёме на 10 м давление пoнижается примернo на 1 мм рт.ст.).